Regional Weather Roundup
Issued by NWS Nashville, TN

Home | Current Version | Previous Version | Text Only | Print | Product List | Glossary On
Versions: 1 2 3 4 5 6 7 8 9 10 11 12 13 14 15 16 17 18 19 20 21 22 23 24 25 26 27 28 29 30 31 32 33 34 35 36 37 38 39 40 41 42 43 44 45 46 47 48 49 50
000
ASUS44 KOHX 020415
RWROHX
MIDDLE TENNESSEE HOURLY WEATHER ROUNDUP
NATIONAL WEATHER SERVICE NASHVILLE TN
1000 PM CST SUN MAR 01 2015

NOTE: "FAIR" INDICATES FEW OR NO CLOUDS BELOW 12,000 FEET WITH
NO SIGNIFICANT WEATHER AND/OR OBSTRUCTIONS TO VISIBILITY.

* THESE REPORTS ARE NOT UNDER NWS QUALITY CONTROL AND MAY NOT
  REPORT WEATHER SUCH AS PRECIPITATION AND FOG.


TNZ005>011-023>034-057-059-062>066-078-080-020500
...NORTHERN MIDDLE TENNESSEE...

CITY           SKY/WX    TMP DP  RH WIND       PRES   REMARKS
CLARKSVILLE    LGT RAIN  35  34  96 N8        30.38S FOG     WCI  29
CROSSVILLE     CLOUDY    45  44  97 SW3       30.31R FOG
GALLATIN       CLOUDY    42  42 100 NW7       30.34R
DICKSON          N/A     37  37 100 N6        30.35R WCI  33
LEBANON        CLOUDY    48  48 100 SW5       30.30S
LIVINGSTON     CLOUDY    49  49 100 SW10      30.29R
NASHVILLE      LGT RAIN  46  46 100 NW12G20   30.34R VSB 1/2
WEST NASHVILLE CLOUDY    41  41 100 NW12      30.35R
PORTLAND       CLOUDY    36  36 100 NW6       30.34R VSB 1/2 WCI  31
SMYRNA         MOCLDY    48  48 100 CALM      30.33R FOG
SPARTA         CLOUDY    48  46  93 S3        30.30S
$$
TNZ056-058-060-061-075>077-079-093>097-020500
...SOUTHERN MIDDLE TENNESSEE...

CITY           SKY/WX    TMP DP  RH WIND       PRES   REMARKS
COLUMBIA       CLOUDY   N/A N/A N/A CALM      30.32R
LEWISBURG      CLOUDY    49  48  96 S5G58     30.32R
MCMINNVILLE    CLOUDY    48  48 100 SW3       30.31F
MURFREESBORO   CLOUDY    49  49 100 S5        30.31S
SHELBYVILLE    CLOUDY    50  48  93 SW3       30.33R VSB 1
TULLAHOMA      CLOUDY    46  46 100 S5        30.33S
WINCHESTER     CLOUDY    46  46 100 SE5       30.33S
$$


...KEY TO REMARKS...
VSB - VISIBILITY IN MILES
WCI - WIND CHILL INDEX
HX  - HEAT INDEX




USA.gov is the U.S. government's official web portal to all federal, state and local government web resources and services.